Location: Cerro Villa Heights
(33.8267°N, 117.8042°W)
Time: 12:43:41
(UTC+00:00)

Meteor 1-24 Rocket - Pass Details

Date: 05 August 2024
Orbit: 790 x 925 km, 81.3° (Epoch: 16 September)

Event Time Altitude Azimuth Distance (km) Brightness Sun altitude
Rises 12:28:53 0° 341° (NNW) 3,493 7.0 -8.0°
Reaches altitude 10° 12:31:28 10° 334° (NNW) 2,569 6.2 -7.5°
Maximum altitude 12:36:48 37° 269° (W) 1,377 4.4 -6.5°
Drops below altitude 10° 12:42:13 10° 203° (SSW) 2,609 5.8 -5.5°
Sets 12:44:52 0° 195° (SSW) 3,554 6.6 -5.0°
